Flag for Germany Weather past 2 weeks in Fehmarn (Puttgarden), Schleswig-Holstein, Germany

Now
47 °F

Overcast.


Feels Like: 43 °F
Forecast: 45 / 49 °F
Wind: 8 mph from Southwest

Location: Westermarkelsdorf

Current Time: Dec 18, 2014 at 3:56:34 PM

Latest Report: Dec 18, 2014 at 3:00 PM


Visibility: 6 mi

Pressure: 29.56 "Hg

Humidity: 98%

Dew point: 47 °F

Location of Fehmarn (Puttgarden)Location

Historic Weather in Fehmarn (Puttgarden) — Graph

°F

Fehmarn (Puttgarden) temperature yesterday

Maximum temperature yesterday: 41 °F (at 1:00 AM)
Minimum temperature yesterday: 37 °F (at 9:00 AM)
Average temperature yesterday: 39 °F

Past Weeks' High & Low Weather Summary

 TemperatureHumidityPressure
High48 °F (Dec 18, 12:00 PM)100% (Dec 18, 1:00 PM)30.29 "Hg (Dec 18, 1:00 PM)
Low33 °F (Dec 14, 8:00 AM)75% (Dec 10, 5:00 AM)29.06 "Hg (Dec 12, 3:00 PM)
Average39 °F89%29.83 "Hg
* Reported Dec 3 2:00 PM — Dec 18 2:00 PM, Fehmarn (Puttgarden), Weather by CustomWeather, © 2014

Note: Actual official high and low records may vary slightly from our data, if they occured in-between our weather recording intervals... More about our weather records

Advertising

Fehmarn (Puttgarden) weather history for previous 24 hours

 ConditionsComfort  
Time TempWeatherWind HumidityBarometerVisibility
2:00 PM
Dec 18
48 °FOvercast.8 mph99%29.59 "Hg6 mi
1:00 PM48 °FFog.8 mph100%29.60 "Hg2 mi
12:00 PM48 °FOvercast.8 mph99%29.62 "Hg5 mi
11:00 AM48 °FLow clouds.6 mph99%29.64 "Hg3 mi
9:00 AM46 °FFog.8 mph99%29.65 "Hg3 mi
8:00 AM45 °FLow clouds.8 mph95%29.65 "Hg9 mi
7:00 AM45 °FOvercast.7 mph95%29.66 "Hg9 mi
6:00 AM44 °FOvercast.7 mph96%29.65 "Hg9 mi
5:00 AM45 °FLow clouds.8 mph97%29.64 "Hg5 mi
3:00 AM44 °FOvercast.7 mph97%29.63 "Hg9 mi
2:00 AM43 °FLow clouds.6 mph97%29.62 "Hg4 mi
1:00 AM42 °FLow clouds.6 mph99%29.60 "Hg2 mi
12:00 AM40 °FDrizzle. Low clouds.2 mph99%29.59 "Hg2 mi
11:00 PM
Dec 17
39 °FDrizzle. Low clouds.2 mph97%29.58 "Hg3 mi
9:00 PM39 °FLow clouds.3 mph95%29.56 "Hg7 mi
8:00 PM38 °FLow clouds.5 mph95%29.55 "Hg7 mi
7:00 PM38 °FLow clouds.5 mph95%29.53 "Hg7 mi
6:00 PM38 °FLow clouds.7 mph95%29.53 "Hg9 mi
5:00 PM38 °FLow clouds.6 mph94%29.53 "Hg6 mi
4:00 PM38 °FRain. Low clouds.6 mph95%29.54 "Hg4 mi
3:00 PM38 °FRain. Overcast.6 mph95%29.54 "Hg4 mi
Weather by CustomWeather, © 2014

See weather overviewHow to use our weather pages